Ashtabula, OH

1:16 AM EDT on April 29, 2017 (GMT -0400)
Ashtabula County

Weather History for KHZY - January, 2014

Change the Weather History Date:

Thursday, January 30, 2014

  Actual Average (KGKJ) Record (KGKJ)
Temperature  
Mean Temperature 16 °F -  
Max Temperature 30 °F 32 °F 61 °F (2013)
Min Temperature 3 °F 16 °F -10 °F (1963)
Degree Days  
Heating Degree Days 50    
Moisture  
Dew Point -1 °F    
Average Humidity 47    
Maximum Humidity 66    
Minimum Humidity 32    
Precipitation  
Precipitation 0.00 in - - ()
Sea Level Pressure  
Sea Level Pressure 30.14 in    
Wind  
Wind Speed 12 mph (South)    
Max Wind Speed 23 mph    
Max Gust Speed 32 mph    
Visibility 10 miles    
Events      
Averages and records for this station are not official NWS values.
T = Trace of Precipitation, MM = Missing Value Source: NWS Daily Summary

Daily Weather History Graph

Daily Weather History Graph

Search for Another Location

Airport or City:

Trip Planner

Search our weather history database for the weather conditions in past years. The results will help you decide how hot, cold, wet, or windy it might be!

Date:

Astronomy

Jan. 30, 2014 Rise Set
Actual Time 7:37 AM EST 5:35 PM EST
Civil Twilight 7:07 AM EST 6:05 PM EST
Nautical Twilight 6:34 AM EST 6:38 PM EST
Astronomical Twilight 6:01 AM EST 7:11 PM EST
Moon 7:01 AM EST (1/30) 5:46 PM EST (1/30)
Length of Visible Light 10h 57m
Length of Day
9h 58m
Waning Crescent, 0% of the Moon is Illuminated
Jan 30
Waning Crescent
Jan 30
New
Feb 6
First Quarter
Feb 14
Full
Feb 22
Last Quarter

Hourly Weather History & Observations

Time (EST) Temp. Windchill Dew Point Humidity Pressure Visibility Wind Dir Wind Speed Gust Speed Precip Events Conditions
12:53 AM 7.0 °F -4.5 °F -5.1 °F 58% 30.30 in 10.0 mi South 6.9 mph - N/A   Clear
1:53 AM 7.0 °F -5.7 °F -4.0 °F 61% 30.29 in 10.0 mi South 8.1 mph - N/A   Clear
2:53 AM 8.1 °F -5.3 °F -4.0 °F 58% 30.29 in 10.0 mi South 9.2 mph - N/A   Clear
3:53 AM 9.0 °F -6.6 °F -4.0 °F 56% 30.28 in 10.0 mi South 12.7 mph - N/A   Clear
4:53 AM 8.1 °F -7.0 °F -4.0 °F 58% 30.28 in 10.0 mi South 11.5 mph - N/A   Clear
5:53 AM 3.9 °F -9.4 °F -5.1 °F 66% 30.30 in 10.0 mi South 8.1 mph - N/A   Clear
6:53 AM 3.9 °F -9.4 °F -6.0 °F 64% 30.32 in 10.0 mi South 8.1 mph - N/A   Clear
7:53 AM 3.9 °F -11.3 °F -6.0 °F 64% 30.31 in 10.0 mi South 10.4 mph - N/A   Clear
8:53 AM 7.0 °F -9.1 °F -4.0 °F 61% 30.29 in 10.0 mi South 12.7 mph - N/A   Clear
9:53 AM 12.9 °F 0.7 °F -2.0 °F 51% 30.27 in 10.0 mi South 9.2 mph - N/A   Clear
10:53 AM 17.1 °F 1.0 °F -0.9 °F 45% 30.25 in 10.0 mi South 18.4 mph 24.2 mph N/A   Clear
11:53 AM 19.0 °F 2.0 °F -0.0 °F 43% 30.22 in 10.0 mi South 23.0 mph 32.2 mph N/A   Clear
12:53 PM 21.0 °F 7.1 °F -0.0 °F 40% 30.17 in 10.0 mi South 16.1 mph 27.6 mph N/A   Clear
1:53 PM 23.0 °F 9.2 °F -0.0 °F 37% 30.12 in 10.0 mi South 17.3 mph 27.6 mph N/A   Clear
2:53 PM 24.1 °F 10.6 °F -0.0 °F 35% 30.08 in 10.0 mi South 17.3 mph 24.2 mph N/A   Clear
3:53 PM 25.0 °F 12.6 °F 1.0 °F 36% 30.04 in 10.0 mi South 15.0 mph 23.0 mph N/A   Clear
4:53 PM 26.1 °F 14.0 °F 1.0 °F 34% 30.01 in 10.0 mi South 15.0 mph 23.0 mph N/A   Clear
5:53 PM 25.0 °F 10.6 °F 3.0 °F 39% 29.95 in 10.0 mi South 20.7 mph 29.9 mph N/A   Clear
6:53 PM 26.1 °F 13.1 °F 3.0 °F 37% 29.93 in 10.0 mi South 17.3 mph 27.6 mph N/A   Partly Cloudy
7:53 PM 27.0 °F 14.7 °F 3.9 °F 37% 29.90 in 10.0 mi South 16.1 mph 29.9 mph N/A   Mostly Cloudy
8:53 PM 28.9 °F 18.2 °F 1.9 °F 32% 29.94 in 10.0 mi SSW 13.8 mph 23.0 mph N/A   Overcast
9:53 PM 28.9 °F 17.7 °F 3.9 °F 35% 29.94 in 10.0 mi SSW 15.0 mph 25.3 mph N/A   Overcast
10:53 PM 28.9 °F 19.2 °F 3.9 °F 35% 29.96 in 10.0 mi SW 11.5 mph - N/A   Overcast
11:53 PM 30.0 °F 18.3 °F 7.0 °F 38% 29.96 in 10.0 mi WSW 17.3 mph 25.3 mph N/A   Overcast